Flag for Spain Weather past 2 weeks in Alicante, Spain

Now
70 °F

Sunny.


Feels Like: 70 °F
Forecast: 54 / 69 °F
Wind: No wind

Location: Alicante / El Altet

Current Time: Mar 31, 2015 at 10:31:34 AM

Latest Report: Mar 31, 2015 at 9:30 AM


Visibility: 10 mi

Pressure: 30.24 "Hg

Humidity: 43%

Dew point: 46 °F

Location of AlicanteLocation

Historic Weather in Alicante — Graph

°F

Alicante temperature yesterday

Maximum temperature yesterday: 90 °F (at 4:00 PM)
Minimum temperature yesterday: 52 °F (at 5:30 AM)
Average temperature yesterday: 72 °F

Past Weeks' High & Low Weather Summary

 TemperatureHumidityPressure
High90 °F (Mar 30, 4:00 PM)100% (Mar 17, 5:00 AM)30.27 "Hg (Mar 17, 5:00 AM)
Low41 °F (Mar 17, 5:00 AM)14% (Mar 30, 4:00 PM)29.56 "Hg (Mar 24, 5:00 AM)
Average59 °F69%29.94 "Hg
* Reported Mar 16 8:00 AM — Mar 31 9:30 AM, Alicante, Weather by CustomWeather, © 2015

Note: Actual official high and low records may vary slightly from our data, if they occured in-between our weather recording intervals... More about our weather records

Advertising

Alicante weather history for previous 24 hours

 ConditionsComfort  
Time TempWeatherWind HumidityBarometerVisibility
9:30 AM
Tue, Mar 31
70 °FSunny.No wind43%30.24 "Hg10 mi
9:00 AM64 °FSunny.No wind52%30.24 "Hg10 mi
8:30 AM61 °FClear.No wind55%30.24 "Hg10 mi
8:00 AM61 °FClear.No wind52%30.24 "Hg10 mi
7:30 AM63 °FClear.3 mph49%30.21 "Hg10 mi
7:00 AM63 °FClear.3 mph49%30.21 "Hg10 mi
6:30 AM66 °FClear.2 mph46%30.21 "Hg10 mi
6:00 AM70 °FClear.2 mph35%30.21 "Hg10 mi
5:30 AM70 °FClear.13 mph35%30.21 "Hg10 mi
4:30 AM72 °FClear.10 mph33%30.21 "Hg10 mi
4:00 AM72 °FClear.12 mph33%30.21 "Hg10 mi
3:30 AM73 °FClear.13 mph31%30.21 "Hg10 mi
3:00 AM73 °FClear.13 mph31%30.21 "Hg10 mi
2:30 AM75 °FClear.15 mph29%30.21 "Hg10 mi
2:00 AM73 °FClear.13 mph31%30.21 "Hg10 mi
1:30 AM72 °FClear.10 mph33%30.21 "Hg10 mi
1:00 AM72 °FPassing clouds.5 mph33%30.21 "HgN/A
12:30 AM75 °FClear.10 mph29%30.21 "Hg10 mi
12:00 AM77 °FClear.10 mph26%30.21 "Hg10 mi
11:30 PM
Mon, Mar 30
75 °FClear.10 mph27%30.21 "Hg10 mi
11:00 PM77 °FClear.9 mph26%30.21 "Hg10 mi
10:30 PM75 °FClear.8 mph29%30.18 "Hg10 mi
10:00 PM73 °FClear.6 mph33%30.18 "Hg10 mi
9:30 PM77 °FClear.5 mph28%30.18 "Hg10 mi
9:00 PM79 °FSunny.7 mph26%30.15 "Hg10 mi
8:30 PM81 °FSunny.5 mph24%30.15 "Hg10 mi
8:00 PM84 °FPassing clouds.6 mph20%30.15 "HgN/A
7:30 PM86 °FSunny.14 mph18%30.15 "Hg10 mi
7:00 PM86 °FSunny.15 mph17%30.15 "Hg10 mi
6:30 PM86 °FPassing clouds.16 mph17%30.15 "HgN/A
6:00 PM86 °FPassing clouds.17 mph17%30.15 "HgN/A
5:30 PM88 °FSunny.16 mph15%30.12 "Hg10 mi
5:00 PM90 °FPassing clouds.16 mph15%30.12 "HgN/A
4:30 PM90 °FPassing clouds.17 mph14%30.15 "HgN/A
4:00 PM90 °FPassing clouds.15 mph14%30.15 "HgN/A
3:30 PM88 °FSunny.14 mph15%30.18 "Hg10 mi
3:00 PM86 °FPassing clouds.15 mph18%30.18 "HgN/A
2:30 PM86 °FSunny.17 mph19%30.18 "Hg10 mi
2:00 PM84 °FSunny.16 mph20%30.18 "Hg10 mi
1:30 PM84 °FSunny.21 mph20%30.21 "Hg10 mi
1:00 PM82 °FSunny.16 mph23%30.21 "Hg10 mi
12:30 PM81 °FPassing clouds.20 mph23%30.21 "HgN/A
12:00 PM79 °FSunny.17 mph26%30.21 "Hg10 mi
11:30 AM77 °FPassing clouds.20 mph26%30.21 "HgN/A
11:00 AM75 °FSunny.23 mph27%30.21 "Hg10 mi
10:30 AM75 °FSunny.17 mph27%30.21 "Hg10 mi
10:00 AM72 °FSunny.15 mph31%30.21 "Hg10 mi
Weather by CustomWeather, © 2015

See weather overviewHow to use our weather pages